Vorticity
8 11 -0 6 3 6 4 13 11 4 9 4 25 10 -4 -8 4 23 -4 4 53 13 -10 1 15 52 44 11 10 3 -4 -7 3 7 11 8 9 7 6 6 5 2 1 0
11 11 16 8 11 12 -2 7 10 17 21 5 23 4 25 9 -9 20 0 37 33 17 24 8 8 36 -22 10 21 26 3 -4 -7 8 9 14 8 8 6 5 7 3 1 0
9 -3 2 12 12 9 12 7 6 9 6 15 35 15 12 7 8 15 6 29 -13 40 17 7 7 14 34 25 2 -10 24 11 -1 2 -3 13 14 6 8 6 6 3 1 2
26 6 5 8 12 18 13 32 35 38 20 2 -3 28 12 6 15 19 10 30 -16 -19 32 31 12 12 27 58 10 11 10 6 6 1 9 -10 4 11 8 10 5 4 3 3
2 16 10 11 17 -2 -6 7 23 0 10 25 1 -3 63 1 3 15 11 23 10 -2 8 37 -2 -3 -5 3 -41 31 12 6 -11 -5 -1 -2 6 10 12 10 8 6 5 11
14 8 20 9 13 22 22 12 29 7 28 -1 26 11 12 5 30 5 14 16 8 -1 46 52 -8 4 4 16 33 34 -17 28 11 6 6 3 3 10 11 13 10 11 5 4
12 11 10 1 13 16 18 14 12 9 12 13 10 -3 8 21 -4 6 9 28 37 44 44 39 -7 4 6 0 -10 37 -28 15 -29 -36 40 33 -22 15 1 12 5 12 3 3
4 13 11 -0 11 10 5 15 13 8 12 8 20 10 -6 21 13 4 2 45 21 24 25 23 27 11 16 23 7 18 12 3 68 -3 24 32 -26 35 5 2 -2 10 4 -3
9 12 -3 43 30 6 3 7 25 8 10 7 18 24 -38 20 21 9 1 14 23 22 27 29 8 10 6 3 16 -0 36 27 3 18 14 17 -7 32 -12 -13 30 -24 -22 10
1 15 7 15 16 21 4 22 10 7 9 11 5 -19 -1 25 17 9 6 40 9 -3 19 26 14 11 8 12 23 13 36 30 16 10 35 -12 18 37 5 59 23 47 43 60
14 17 15 14 5 11 12 29 11 12 17 12 10 -11 23 17 20 22 5 41 12 5 22 21 26 16 9 11 13 12 7 10 12 6 10 9 10 12 20 26 3 3 9 9
13 9 6 8 12 1 6 11 28 18 21 17 21 -12 14 11 15 20 8 29 -29 27 4 18 8 10 16 14 5 4 6 2 3 7 9 8 7 9 7 7 9 5 5 5
18 6 11 2 -14 -5 -4 22 21 8 2 11 19 7 9 12 11 11 17 7 15 48 1 11 6 5 1 10 13 8 4 3 4 5 8 10 11 8 7 8 5 5 6 6
7 11 31 22 13 21 -0 20 38 29 38 20 22 10 11 7 9 14 10 9 5 8 22 17 -9 6 8 1 11 10 7 5 5 0 8 5 6 10 10 10 9 10 9 8
9 10 5 8 14 7 4 15 29 3 11 2 13 4 3 6 5 5 8 12 10 7 6 2 9 -5 6 1 0 4 6 11 4 7 6 4 -0 13 14 13 10 10 9 8
3 9 14 6 15 7 4 16 10 4 -4 -2 3 -4 2 3 3 8 6 6 10 15 11 7 15 17 13 11 11 8 11 8 3 5 6 5 9 12 13 11 11 11 11 9
8 -0 -4 10 -6 -4 -30 2 13 3 9 1 5 2 1 3 4 2 7 5 6 8 12 15 9 7 11 11 7 9 15 11 9 9 7 7 6 9 9 9 9 10 9 9
8 8 12 11 6 6 11 12 8 7 5 8 7 -2 -3 1 6 14 2 2 5 6 5 8 12 16 9 9 14 6 8 13 10 6 7 7 2 4 3 4 4 4 8 9
10 10 7 11 18 9 5 18 5 -3 6 2 5 8 7 9 7 9 12 14 11 10 7 6 6 9 14 15 12 8 7 8 8 7 5 6 4 1 3 6 4 6 8 8
6 8 15 1 11 12 17 16 17 10 8 9 8 8 8 10 8 8 9 11 11 10 10 14 9 4 5 7 13 18 16 16 14 11 9 9 8 6 5 6 10 13 15 13
11 9 9 10 12 15 8 9 8 -1 22 7 7 7 9 9 8 8 10 10 9 11 15 14 10 12 9 5 5 6 7 11 15 14 15 17 18 18 17 17 16 14 13 13
7 6 10 6 11 12 6 7 -2 16 11 5 4 5 7 7 8 9 10 11 10 11 13 13 16 15 11 13 10 8 9 12 14 13 14 14 16 16 16 15 15 14 12 10
17 0 11 4 12 25 8 8 12 8 6 5 6 6 6 7 7 7 5 11 11 11 12 14 12 14 15 12 14 13 13 11 10 9 10 11 10 10 11 10 9 9 8 8
11 10 6 6 14 9 8 7 4 5 5 6 9 9 8 8 8 10 9 9 5 5 6 10 12 12 18 14 12 8 6 6 11 5 7 7 7 6 7 6 5 5 8 9
11 18 14 5 14 6 4 5 6 7 9 7 4 3 2 8 7 7 11 12 12 12 10 5 4 8 8 10 14 8 4 18 9 9 8 24 6 4 2 10 8 1 2 4
21 10 9 20 7 4 12 8 8 5 6 10 4 7 7 14 7 5 7 8 10 13 10 9 7 7 6 7 9 10 17 27 10 -5 5 5 17 15 14 31 31 15 14 8
Height
3026 3025 3022 3022 3021 3018 3015 3012 3007 3006 3006 3004 3001 3003 3004 3005 3008 3009 3013 3014 3016 3027 3036 3044 3045 3047 3053 3066 3073 3080 3091 3094 3100 3108 3118 3125 3132 3138 3144 3149 3155 3159 3164 3167
3024 3020 3019 3016 3015 3013 3011 3007 3001 2998 2997 3000 2997 2998 3001 3002 3004 3007 3009 3011 3015 3023 3034 3041 3047 3044 3045 3057 3069 3077 3083 3088 3096 3106 3116 3124 3130 3136 3142 3149 3155 3158 3161 3164
3020 3018 3014 3012 3009 3006 3003 3000 2995 2994 2993 2993 2995 2997 2998 2998 2998 3000 3007 3011 3012 3020 3027 3037 3045 3046 3046 3053 3062 3071 3079 3085 3095 3106 3113 3118 3123 3131 3138 3142 3148 3153 3157 3160
3015 3012 3011 3008 3004 2999 2995 2990 2987 2987 2988 2989 2990 2991 2991 2994 2995 2996 3000 3004 3010 3013 3025 3035 3041 3045 3048 3054 3057 3066 3074 3085 3093 3102 3109 3117 3122 3129 3136 3142 3146 3150 3154 3157
3015 3010 3009 3004 2999 2996 2993 2988 2984 2982 2981 2985 2988 2987 2988 2991 2989 2987 2995 3002 3011 3014 3015 3026 3036 3042 3047 3046 3054 3063 3074 3084 3092 3102 3108 3113 3118 3124 3132 3137 3141 3146 3149 3152
3011 3008 3007 3003 2998 2994 2990 2986 2982 2976 2974 2980 2985 2984 2987 2991 2991 2989 2994 3000 3005 3007 3008 3018 3031 3038 3044 3047 3056 3062 3069 3075 3086 3094 3101 3108 3113 3119 3125 3130 3135 3139 3143 3146
3010 3007 3005 3001 2997 2993 2992 2989 2984 2980 2976 2981 2985 2988 2994 2993 2994 2995 2992 2994 2996 3000 3003 3013 3025 3036 3045 3047 3055 3060 3065 3071 3081 3086 3096 3099 3101 3109 3114 3120 3126 3130 3134 3138
3013 3009 3004 3001 2999 2995 2996 2994 2991 2985 2981 2984 2987 2992 2996 2993 2990 2992 2993 2995 2997 2997 3003 3015 3026 3036 3041 3048 3054 3057 3064 3068 3072 3079 3080 3084 3085 3099 3106 3110 3117 3119 3125 3130
3015 3010 3004 2999 2997 2998 2997 2997 2996 2993 2990 2987 2993 2996 2997 2996 2995 2993 2994 2995 3000 3003 3007 3018 3026 3033 3039 3043 3049 3055 3059 3064 3068 3074 3078 3083 3090 3091 3092 3102 3109 3115 3118 3124
3017 3012 3007 3005 3003 3002 3000 3000 2999 2995 2992 2993 3001 3001 3005 2999 2999 2999 2996 2999 3004 3007 3011 3015 3024 3031 3038 3041 3048 3051 3053 3062 3067 3072 3076 3080 3083 3084 3093 3096 3104 3106 3112 3117
3018 3016 3013 3008 3007 3004 3003 3001 3000 3000 3000 2995 3000 3013 3012 3010 3005 3002 3002 3002 3005 3005 3006 3016 3024 3032 3038 3043 3047 3051 3058 3063 3066 3069 3077 3081 3084 3085 3088 3095 3102 3107 3111 3115
3020 3018 3016 3014 3011 3008 3005 3003 3001 3000 3005 3004 3008 3019 3016 3015 3010 3010 3009 3007 3010 3012 3014 3022 3027 3034 3039 3045 3048 3054 3060 3065 3069 3073 3077 3080 3084 3089 3093 3096 3101 3105 3109 3114
3022 3021 3019 3016 3016 3012 3010 3007 3005 3005 3007 3010 3010 3025 3024 3021 3019 3018 3018 3020 3014 3017 3019 3024 3031 3035 3041 3047 3052 3058 3061 3066 3070 3074 3075 3079 3083 3087 3091 3095 3099 3103 3107 3112
3023 3024 3022 3024 3023 3020 3015 3012 3010 3009 3012 3017 3022 3025 3027 3025 3024 3024 3024 3024 3023 3023 3027 3027 3032 3037 3043 3050 3057 3060 3063 3067 3071 3073 3076 3080 3083 3087 3092 3095 3099 3102 3106 3109
3025 3026 3026 3026 3025 3025 3024 3022 3020 3017 3018 3021 3026 3024 3025 3027 3030 3030 3029 3029 3028 3029 3031 3034 3037 3041 3046 3052 3056 3060 3064 3069 3072 3074 3076 3079 3082 3086 3089 3093 3096 3097 3100 3104
3027 3028 3029 3029 3030 3031 3030 3031 3029 3027 3028 3027 3029 3029 3032 3034 3036 3037 3038 3037 3037 3036 3038 3041 3043 3044 3048 3052 3054 3056 3062 3067 3069 3070 3074 3077 3079 3082 3086 3090 3092 3094 3096 3099
3028 3029 3029 3030 3029 3029 3031 3031 3031 3032 3031 3030 3031 3035 3037 3037 3038 3040 3041 3041 3041 3041 3040 3042 3043 3045 3047 3050 3051 3056 3058 3060 3064 3068 3071 3074 3076 3078 3081 3085 3088 3090 3092 3094
3028 3029 3029 3030 3030 3033 3038 3035 3033 3032 3033 3034 3036 3038 3040 3042 3043 3044 3042 3042 3042 3043 3044 3043 3043 3045 3046 3049 3052 3053 3056 3060 3062 3065 3067 3071 3073 3075 3078 3080 3082 3084 3086 3087
3030 3029 3029 3031 3031 3035 3035 3035 3036 3036 3038 3038 3040 3042 3043 3042 3041 3040 3040 3040 3041 3043 3044 3045 3044 3045 3047 3050 3050 3051 3054 3057 3058 3061 3063 3065 3068 3071 3073 3074 3075 3078 3079 3080
3032 3031 3032 3031 3033 3034 3035 3036 3037 3038 3040 3040 3040 3040 3040 3041 3041 3041 3040 3041 3042 3042 3043 3044 3044 3044 3044 3046 3048 3050 3050 3051 3055 3056 3059 3061 3063 3064 3066 3067 3068 3069 3071 3071
3033 3034 3033 3033 3034 3036 3034 3035 3036 3039 3044 3040 3041 3042 3043 3043 3045 3043 3042 3042 3042 3042 3043 3042 3041 3041 3042 3042 3043 3044 3047 3049 3051 3051 3051 3052 3054 3056 3059 3060 3061 3062 3063 3064
3033 3035 3035 3036 3036 3038 3037 3039 3041 3041 3040 3042 3043 3045 3046 3047 3045 3043 3043 3043 3042 3041 3041 3040 3039 3038 3037 3037 3038 3038 3039 3041 3043 3043 3045 3048 3048 3049 3051 3052 3054 3056 3058 3059
3034 3035 3035 3037 3036 3036 3037 3039 3040 3041 3041 3042 3044 3044 3045 3045 3045 3045 3044 3042 3040 3040 3039 3038 3037 3036 3036 3035 3035 3033 3034 3036 3037 3037 3038 3040 3041 3043 3046 3048 3047 3049 3051 3051
3031 3032 3034 3037 3036 3037 3037 3038 3039 3040 3041 3042 3043 3043 3042 3042 3041 3040 3040 3039 3038 3036 3036 3036 3035 3033 3032 3032 3032 3032 3035 3034 3035 3034 3034 3034 3036 3037 3037 3037 3038 3040 3042 3042
3030 3031 3032 3034 3035 3037 3038 3039 3039 3040 3041 3041 3041 3041 3041 3040 3040 3040 3039 3038 3037 3037 3036 3035 3033 3032 3031 3030 3029 3030 3031 3032 3030 3028 3029 3030 3030 3030 3030 3031 3031 3032 3032 3034
3026 3028 3030 3031 3033 3035 3036 3036 3037 3038 3039 3040 3040 3040 3039 3038 3038 3037 3037 3036 3036 3035 3034 3033 3031 3030 3029 3028 3028 3028 3027 3026 3024 3024 3023 3022 3022 3022 3021 3020 3020 3022 3023 3023